Location: Fiennes
(50.8274°N, 1.8253°E)
Time: 23:23:46
(UTC+00:00)

Cosmos 2360 Rocket - Pass Details

Date: 15 May 2026
Orbit: 831 x 845 km, 71.0° (Epoch: 11 June)

Event Time Altitude Azimuth Distance (km) Brightness Sun altitude
Rises 21:44:13 0° 327° (NNW) 3,416 7.3 -14.9°
Reaches altitude 10° 21:46:43 10° 324° (NW) 2,477 6.0 -15.1°
Maximum altitude 21:52:14 55° 248° (WSW) 1,010 2.6 -15.6°
Enters shadow 21:55:52 21° 178° (S) 1,796 3.4 -15.8°
